Regional Weather Roundup
Issued by NWS

Home | Current Version | Previous Version | Graphics & Text | Print | Product List | Glossary On
Versions: 1 2 3 4 5 6 7 8 9 10 11 12 13 14 15 16 17 18 19 20 21 22 23 24 25 26 27 28 29 30 31 32 33 34 35 36 37 38 39 40 41 42 43 44 45 46 47 48 49 50
000
ASUS43 KLOT 011708
RWRIL

ILLINOIS REGIONAL WEATHER ROUNDUP
NATIONAL WEATHER SERVICE CHICAGO/ROMEOVILLE IL
1200 PM CDT TUE SEP 01 2015

NOTE: "FAIR" INDICATES FEW OR NO CLOUDS BELOW 12,000 FEET WITH NO
SIGNIFICANT WEATHER AND/OR OBSTRUCTIONS TO VISIBILITY.

* THESE STATIONS ARE NOT UNDER NWS QUALITY CONTROL. THEY ALSO MAY NOT
  REPORT WEATHER SUCH AS PRECIPITATION OR FOG.

ILZ001-002-007-009-015-016-024-011800-
NORTHWEST ILLINOIS

CITY           SKY/WX    TMP DP  RH WIND       PRES   REMARKS
MOLINE         SUNNY     87  71  58 SW9       30.01F HX  93
STERLING*      SUNNY     88  72  58 W7        30.01S HX  94
SAVANNA*       SUNNY     86  70  58 SW9       30.01S HX  91
$$

ILZ003-004-008-010-011-017-018-011800-
NORTH CENTRAL ILLINOIS

CITY           SKY/WX    TMP DP  RH WIND       PRES   REMARKS
ROCKFORD       MOSUNNY   86  73  65 SW9       30.04S HX  93
FREEPORT*      SUNNY     83  73  72 SW9       30.04S HX  89
ROCHELLE*      SUNNY     84  73  69 SW8       30.05S HX  91
DE KALB*       MOSUNNY   85  76  74 SE9       30.06S HX  94
PERU*          SUNNY     87  69  53 SW9       30.06S HX  91
$$

ILZ005-006-012>014-019>023-011800-
NORTHEAST ILLINOIS

CITY           SKY/WX    TMP DP  RH WIND       PRES   REMARKS
CHICAGO-OHARE  MOSUNNY   85  73  67 S7        30.04F HX  91
CHICAGO-MIDWAY MOSUNNY   87  72  60 S10       30.05F HX  93
AURORA         SUNNY     85  74  69 S7        30.06S HX  92
LANSING*       CLOUDY    81  72  75 S15       30.09R HX  85
JOLIET*        SUNNY     86  74  67 SW9       30.07S HX  94
WAUKEGAN       SUNNY     85  74  69 SW8       30.02F HX  92
DUPAGE AIRPORT SUNNY     85  73  67 S7        30.05S HX  91
KANKAKEE*      PTSUNNY   79  70  74 S16G28    30.11S HX  81
WHEELING       MOSUNNY   86  72  62 S9        30.05S HX  92
MORRIS*        MOSUNNY   84  76  75 S9        30.06S HX  93
ROMEOVILLE*    SUNNY     84  71  65 S10       30.07S HX  89
NORTHERLY ISL    N/A     84  70  62 S10         N/A  HX  88
$$

LMZ740>746-011800-
SOUTHERN LAKE MICHIGAN

STATION/POSITION SKY/WX   TEMP    WIND        PRES    VSBY  WAVE
                          AIR SEA DIR/SP/G                  HT/PER
                          (F)     (DEG/KT/KT) (MB)    (MI)  (FT/S)
SOUTHERN BUOY              71 70  180/ 12/ 14 1016.8F         1/ 3
WILMETTE HARBOR            69 62  310/  8/ 10   N/A           1
HARRISON CRIB              77     170/ 12/ 13   N/A
BURNHAM HARBOR             85     170/  6/ 10   N/A
CALUMET HARBOR             81     180/  6/  9   N/A
BURNS HARBOR               81     180/  8/ 10 1018.6S
MICHIGAN CITY              80     150/ 10/ 11   N/A
MICHIGAN CITY 6N           78 73  200/  8/ 10   N/A           0
ST. JOSEPH                 76 73  280/  4/  4   N/A           1
$$

ILZ025>027-034>036-040-047-049-050-058-095>099-011800-
WEST-CENTRAL ILLINOIS

CITY           SKY/WX    TMP DP  RH WIND       PRES   REMARKS
QUINCY         SUNNY     87  69  54 S6        30.06F HX  91
GALESBURG*     SUNNY     86  72  61 S9        30.05F HX  92
MACOMB*        SUNNY     88  69  54 SW8       30.07F HX  92
JACKSONVILLE*  SUNNY     89  71  56 SW6       30.07F HX  95
PITTSFIELD*    SUNNY     88  69  54 S6        30.08F HX  92
$$

ILZ028>032-037-038-041>044-048-051>054-059>061-011800-
CENTRAL ILLINOIS

CITY           SKY/WX    TMP DP  RH WIND       PRES   REMARKS
PONTIAC        MOSUNNY   81  73  76 S14G21    30.10S HX  85
BLOOMINGTON    MOSUNNY   87  74  65 SE13      30.11S HX  95
DECATUR        MOSUNNY   84  71  65 S7        30.11F HX  89
PEORIA         SUNNY     89  73  59 S7        30.06F HX  97
LACON*         SUNNY     85  72  63 SW6       30.05S HX  91
LINCOLN*       SUNNY     90  70  51 CALM      30.07F HX  95
SPRINGFIELD    SUNNY     88  72  58 S7        30.08F HX  94
TAYLORVILLE    SUNNY     86  70  58 SW5       30.09F HX  90
$$

ILZ033-039-045-046-055>057-062-063-011800-
EAST-CENTRAL ILLINOIS

CITY           SKY/WX    TMP DP  RH WIND       PRES   REMARKS
CHAMPAIGN      CLOUDY    74  68  81 SE8       30.13F
RANTOUL*       CLOUDY    72  70  93 E6        30.14F
MATTOON        PTSUNNY   81  68  64 S9        30.13S HX  84
PARIS*         CLOUDY    71  69  94 S3        30.15F
$$

ILZ079-100>102-011800-
SOUTHWEST ILLINOIS

CITY           SKY/WX    TMP DP  RH WIND       PRES   REMARKS
ALTON          SUNNY     84  72  65 SW8       30.10S HX  89
BELLEVILLE     SUNNY     87  74  65 VRB5      30.09F HX  96
CAHOKIA*       SUNNY     87  69  54 S3        30.09F HX  91
SPARTA*        SUNNY     85  72  65 S5        30.12F HX  90
$$

ILZ064>066-069>071-074>076-080>082-084>086-088>090-092>094-011800-
SOUTH-CENTRAL ILLINOIS

CITY           SKY/WX    TMP DP  RH WIND       PRES   REMARKS
CARBONDALE     SUNNY     85  70  60 S6        30.12F HX  89
CAIRO*         SUNNY     84  72  67 S5        30.12F HX  90
EFFINGHAM*     MOSUNNY   83  66  55 SE5       30.14S HX  85
MARION         SUNNY     86  70  58 S6        30.14F HX  90
MT. VERNON     SUNNY     88  70  55 S7        30.13F HX  92
CENTRALIA*     SUNNY     87  72  60 S3        30.11F HX  93
SALEM*         SUNNY     87  70  57 S5        30.12F HX  92
METROPOLIS*    SUNNY     85  72  64 CALM      30.13F HX  91
$$

ILZ067-068-072-073-078-083-087-091-011800-
SOUTHEAST ILLINOIS

CITY           SKY/WX    TMP DP  RH WIND       PRES   REMARKS
LAWRENCEVILLE  MOSUNNY   81  69  67 CALM      30.14F HX  84
FLORA*         MOSUNNY   84  69  60 SE3       30.12F HX  88
FAIRFIELD*     MOSUNNY   84  70  62 CALM      30.12S HX  88
HARRISBURG*    SUNNY     85  68  55 CALM      30.13S HX  88
ROBINSON*      PTSUNNY   78  69  75 CALM      30.14S HX  80
CARMI*         MOSUNNY   84  71  64 SW5       30.12F HX  89
$$

ABBREVIATIONS USED IN REMARKS
   TC - TEMPERATURE IN CELSIUS
  WCI - WIND CHILL INDEX
   HX - HEAT INDEX
  VSB - VISIBILITY
$$




USA.gov is the U.S. government's official web portal to all federal, state and local government web resources and services.